Data supplied by UK-AIR on 4/4/2023
All Data GMT hour ending 
Status: R =Ratified P=Provisional,P*=As supplied
,,Borehamwood Meadow Park,,,,,,,,,,,,,,,,,,,,,,,
Date,time,"PM<sub>10</sub> particulate matter (Hourly measured)",status,unit,"Nitric oxide",status,unit,"Nitrogen dioxide",status,unit,"Nitrogen oxides as nitrogen dioxide",status,unit,"PM<sub>2.5</sub> particulate matter (Hourly measured)",status,unit
 
01-01-2022,01:00,,,,0.62365,R,ugm-3,11.47500,R,ugm-3,12.43125,R,ugm-3,,,
01-01-2022,02:00,,,,0.24946,R,ugm-3,10.13625,R,ugm-3,10.51875,R,ugm-3,,,
01-01-2022,03:00,,,,0.24946,R,ugm-3,5.73750,R,ugm-3,6.12000,R,ugm-3,,,
01-01-2022,04:00,,,,0.12473,R,ugm-3,4.39875,R,ugm-3,4.78125,R,ugm-3,,,
01-01-2022,05:00,,,,0.12473,R,ugm-3,4.78125,R,ugm-3,5.16375,R,ugm-3,,,
01-01-2022,06:00,,,,0.12473,R,ugm-3,4.01625,R,ugm-3,4.20750,R,ugm-3,,,
01-01-2022,07:00,,,,0.12473,R,ugm-3,4.59000,R,ugm-3,4.78125,R,ugm-3,,,
01-01-2022,08:00,,,,0.24946,R,ugm-3,5.16375,R,ugm-3,5.54625,R,ugm-3,,,
01-01-2022,09:00,,,,0.24946,R,ugm-3,5.73750,R,ugm-3,6.31125,R,ugm-3,,,
01-01-2022,10:00,,,,0.74838,R,ugm-3,6.69375,R,ugm-3,7.84125,R,ugm-3,,,
01-01-2022,11:00,,,,1.12257,R,ugm-3,7.26750,R,ugm-3,8.98875,R,ugm-3,,,
01-01-2022,12:00,,,,1.62149,R,ugm-3,9.75375,R,ugm-3,12.04875,R,ugm-3,,,
01-01-2022,13:00,,,,1.74622,R,ugm-3,13.19625,R,ugm-3,15.87375,R,ugm-3,,,
01-01-2022,14:00,,,,1.49676,R,ugm-3,13.38750,R,ugm-3,15.68250,R,ugm-3,,,
01-01-2022,15:00,,,,0.99784,R,ugm-3,10.90125,R,ugm-3,12.43125,R,ugm-3,,,
01-01-2022,16:00,,,,0.87311,R,ugm-3,10.51875,R,ugm-3,11.85750,R,ugm-3,,,
01-01-2022,17:00,,,,0.62365,R,ugm-3,13.77000,R,ugm-3,14.72625,R,ugm-3,,,
01-01-2022,18:00,,,,0.62365,R,ugm-3,14.15250,R,ugm-3,14.91750,R,ugm-3,,,
01-01-2022,19:00,,,,0.49892,R,ugm-3,11.85750,R,ugm-3,12.62250,R,ugm-3,,,
01-01-2022,20:00,,,,0.49892,R,ugm-3,13.96125,R,ugm-3,14.53500,R,ugm-3,,,
01-01-2022,21:00,,,,0.49892,R,ugm-3,13.38750,R,ugm-3,13.96125,R,ugm-3,,,
01-01-2022,22:00,,,,0.37419,R,ugm-3,12.81375,R,ugm-3,13.38750,R,ugm-3,,,
01-01-2022,23:00,,,,0.37419,R,ugm-3,12.43125,R,ugm-3,13.00500,R,ugm-3,,,
01-01-2022,24:00,,,,0.24946,R,ugm-3,9.37125,R,ugm-3,9.75375,R,ugm-3,,,
02-01-2022,01:00,,,,0.24946,R,ugm-3,6.50250,R,ugm-3,6.88500,R,ugm-3,,,
02-01-2022,02:00,,,,0.24946,R,ugm-3,9.75375,R,ugm-3,10.32750,R,ugm-3,,,
02-01-2022,03:00,,,,0.12473,R,ugm-3,4.78125,R,ugm-3,4.97250,R,ugm-3,,,
02-01-2022,04:00,,,,0.12473,R,ugm-3,3.82500,R,ugm-3,4.01625,R,ugm-3,,,
02-01-2022,05:00,,,,0.12473,R,ugm-3,3.63375,R,ugm-3,3.82500,R,ugm-3,,,
02-01-2022,06:00,,,,0.12473,R,ugm-3,3.06000,R,ugm-3,3.25125,R,ugm-3,,,
02-01-2022,07:00,,,,0.12473,R,ugm-3,1.91250,R,ugm-3,2.29500,R,ugm-3,,,
02-01-2022,08:00,,,,0.00000,R,ugm-3,1.91250,R,ugm-3,2.10375,R,ugm-3,,,
02-01-2022,09:00,,,,0.24946,R,ugm-3,3.63375,R,ugm-3,3.82500,R,ugm-3,,,
02-01-2022,10:00,,,,0.37419,R,ugm-3,4.20750,R,ugm-3,4.78125,R,ugm-3,,,
02-01-2022,11:00,,,,0.49892,R,ugm-3,3.63375,R,ugm-3,4.39875,R,ugm-3,,,
02-01-2022,12:00,,,,0.49892,R,ugm-3,3.25125,R,ugm-3,4.01625,R,ugm-3,,,
02-01-2022,13:00,,,,0.62365,R,ugm-3,4.97250,R,ugm-3,5.92875,R,ugm-3,,,
02-01-2022,14:00,,,,0.87311,R,ugm-3,15.87375,R,ugm-3,17.21250,R,ugm-3,,,
02-01-2022,15:00,,,,0.99784,R,ugm-3,16.83000,R,ugm-3,18.36000,R,ugm-3,,,
02-01-2022,16:00,,,,0.37419,R,ugm-3,8.41500,R,ugm-3,8.98875,R,ugm-3,,,
02-01-2022,17:00,,,,0.24946,R,ugm-3,4.39875,R,ugm-3,4.78125,R,ugm-3,,,
02-01-2022,18:00,,,,0.37419,R,ugm-3,4.97250,R,ugm-3,5.54625,R,ugm-3,,,
02-01-2022,19:00,,,,0.24946,R,ugm-3,6.31125,R,ugm-3,6.69375,R,ugm-3,,,
02-01-2022,20:00,,,,0.24946,R,ugm-3,5.92875,R,ugm-3,6.50250,R,ugm-3,,,
02-01-2022,21:00,,,,0.24946,R,ugm-3,5.35500,R,ugm-3,5.73750,R,ugm-3,,,
02-01-2022,22:00,,,,0.37419,R,ugm-3,5.35500,R,ugm-3,5.92875,R,ugm-3,,,
02-01-2022,23:00,,,,0.37419,R,ugm-3,4.01625,R,ugm-3,4.59000,R,ugm-3,,,
02-01-2022,24:00,,,,0.24946,R,ugm-3,4.20750,R,ugm-3,4.59000,R,ugm-3,,,
03-01-2022,01:00,,,,0.24946,R,ugm-3,4.20750,R,ugm-3,4.59000,R,ugm-3,,,
03-01-2022,02:00,,,,0.24946,R,ugm-3,6.50250,R,ugm-3,6.88500,R,ugm-3,,,
03-01-2022,03:00,,,,0.24946,R,ugm-3,2.67750,R,ugm-3,3.06000,R,ugm-3,,,
03-01-2022,04:00,,,,0.24946,R,ugm-3,2.10375,R,ugm-3,2.48625,R,ugm-3,,,
03-01-2022,05:00,,,,0.12473,R,ugm-3,1.91250,R,ugm-3,2.29500,R,ugm-3,,,
03-01-2022,06:00,,,,0.24946,R,ugm-3,2.29500,R,ugm-3,2.67750,R,ugm-3,,,
03-01-2022,07:00,,,,0.24946,R,ugm-3,3.44250,R,ugm-3,3.82500,R,ugm-3,,,
03-01-2022,08:00,,,,0.37419,R,ugm-3,5.73750,R,ugm-3,6.31125,R,ugm-3,,,
03-01-2022,09:00,,,,0.49892,R,ugm-3,9.37125,R,ugm-3,10.13625,R,ugm-3,,,
03-01-2022,10:00,,,,0.74838,R,ugm-3,10.90125,R,ugm-3,12.04875,R,ugm-3,,,
03-01-2022,11:00,,,,1.24730,R,ugm-3,10.32750,R,ugm-3,12.24000,R,ugm-3,,,
03-01-2022,12:00,,,,0.99784,R,ugm-3,7.84125,R,ugm-3,9.37125,R,ugm-3,,,
03-01-2022,13:00,,,,0.87311,R,ugm-3,7.07625,R,ugm-3,8.60625,R,ugm-3,,,
03-01-2022,14:00,,,,0.74838,R,ugm-3,7.07625,R,ugm-3,8.22375,R,ugm-3,,,
03-01-2022,15:00,,,,1.49676,R,ugm-3,8.41500,R,ugm-3,10.71000,R,ugm-3,,,
03-01-2022,16:00,,,,0.74838,R,ugm-3,10.13625,R,ugm-3,11.09250,R,ugm-3,,,
03-01-2022,17:00,,,,0.74838,R,ugm-3,16.44750,R,ugm-3,17.59500,R,ugm-3,,,
03-01-2022,18:00,,,,0.62365,R,ugm-3,18.16875,R,ugm-3,19.12500,R,ugm-3,,,
03-01-2022,19:00,,,,0.62365,R,ugm-3,20.65500,R,ugm-3,21.61125,R,ugm-3,,,
03-01-2022,20:00,,,,0.62365,R,ugm-3,20.84625,R,ugm-3,21.80250,R,ugm-3,,,
03-01-2022,21:00,,,,0.62365,R,ugm-3,15.68250,R,ugm-3,16.63875,R,ugm-3,,,
03-01-2022,22:00,,,,0.74838,R,ugm-3,14.15250,R,ugm-3,15.30000,R,ugm-3,,,
03-01-2022,23:00,,,,0.49892,R,ugm-3,12.24000,R,ugm-3,13.00500,R,ugm-3,,,
03-01-2022,24:00,,,,0.37419,R,ugm-3,9.37125,R,ugm-3,9.75375,R,ugm-3,,,
04-01-2022,01:00,,,,0.24946,R,ugm-3,7.65000,R,ugm-3,8.03250,R,ugm-3,,,
04-01-2022,02:00,,,,0.49892,R,ugm-3,11.66625,R,ugm-3,12.43125,R,ugm-3,,,
04-01-2022,03:00,,,,0.37419,R,ugm-3,7.07625,R,ugm-3,7.65000,R,ugm-3,,,
04-01-2022,04:00,,,,0.37419,R,ugm-3,6.12000,R,ugm-3,6.69375,R,ugm-3,,,
04-01-2022,05:00,,,,0.12473,R,ugm-3,4.39875,R,ugm-3,4.59000,R,ugm-3,,,
04-01-2022,06:00,,,,0.12473,R,ugm-3,5.92875,R,ugm-3,6.31125,R,ugm-3,,,
04-01-2022,07:00,,,,0.24946,R,ugm-3,10.32750,R,ugm-3,10.71000,R,ugm-3,,,
04-01-2022,08:00,,,,0.37419,R,ugm-3,22.18500,R,ugm-3,22.75875,R,ugm-3,,,
04-01-2022,09:00,,,,6.36123,R,ugm-3,35.38125,R,ugm-3,45.13500,R,ugm-3,,,
04-01-2022,10:00,,,,0.12473,R,ugm-3,5.35500,R,ugm-3,5.54625,R,ugm-3,,,
04-01-2022,11:00,,,,0.24946,R,ugm-3,4.39875,R,ugm-3,4.78125,R,ugm-3,,,
04-01-2022,12:00,,,,0.24946,R,ugm-3,4.78125,R,ugm-3,5.16375,R,ugm-3,,,
04-01-2022,13:00,,,,0.49892,R,ugm-3,4.78125,R,ugm-3,5.54625,R,ugm-3,,,
04-01-2022,14:00,,,,0.99784,R,ugm-3,11.47500,R,ugm-3,13.00500,R,ugm-3,,,
04-01-2022,15:00,,,,,,,,,,,,,,,
04-01-2022,16:00,,,,,,,,,,,,,,,
04-01-2022,17:00,,,,0.74838,R,ugm-3,23.52375,R,ugm-3,24.67125,R,ugm-3,,,
04-01-2022,18:00,,,,0.74838,R,ugm-3,23.33250,R,ugm-3,24.48000,R,ugm-3,,,
04-01-2022,19:00,,,,1.62149,R,ugm-3,26.96625,R,ugm-3,29.64375,R,ugm-3,,,
04-01-2022,20:00,,,,0.49892,R,ugm-3,20.08125,R,ugm-3,21.03750,R,ugm-3,,,
04-01-2022,21:00,,,,0.24946,R,ugm-3,11.09250,R,ugm-3,11.66625,R,ugm-3,,,
04-01-2022,22:00,,,,0.12473,R,ugm-3,6.31125,R,ugm-3,6.69375,R,ugm-3,,,
04-01-2022,23:00,,,,0.12473,R,ugm-3,3.25125,R,ugm-3,3.44250,R,ugm-3,,,
04-01-2022,24:00,,,,0.00000,R,ugm-3,2.86875,R,ugm-3,2.86875,R,ugm-3,,,
05-01-2022,01:00,,,,0.00000,R,ugm-3,2.86875,R,ugm-3,2.86875,R,ugm-3,,,
05-01-2022,02:00,,,,0.00000,R,ugm-3,5.54625,R,ugm-3,5.54625,R,ugm-3,,,
05-01-2022,03:00,,,,0.00000,R,ugm-3,2.86875,R,ugm-3,2.86875,R,ugm-3,,,
05-01-2022,04:00,,,,0.00000,R,ugm-3,1.72125,R,ugm-3,1.72125,R,ugm-3,,,
05-01-2022,05:00,,,,0.00000,R,ugm-3,1.72125,R,ugm-3,1.72125,R,ugm-3,,,
05-01-2022,06:00,,,,0.00000,R,ugm-3,2.86875,R,ugm-3,2.86875,R,ugm-3,,,
05-01-2022,07:00,,,,0.37419,R,ugm-3,7.45875,R,ugm-3,7.84125,R,ugm-3,,,
05-01-2022,08:00,,,,0.37419,R,ugm-3,10.13625,R,ugm-3,10.71000,R,ugm-3,,,
05-01-2022,09:00,,,,0.49892,R,ugm-3,9.94500,R,ugm-3,10.71000,R,ugm-3,,,
05-01-2022,10:00,,,,0.87311,R,ugm-3,7.65000,R,ugm-3,8.98875,R,ugm-3,,,
05-01-2022,11:00,,,,1.12257,R,ugm-3,6.88500,R,ugm-3,8.60625,R,ugm-3,,,
05-01-2022,12:00,,,,1.24730,R,ugm-3,5.92875,R,ugm-3,7.65000,R,ugm-3,,,
05-01-2022,13:00,,,,1.24730,R,ugm-3,6.12000,R,ugm-3,8.03250,R,ugm-3,,,
05-01-2022,14:00,,,,1.12257,R,ugm-3,6.31125,R,ugm-3,8.03250,R,ugm-3,,,
05-01-2022,15:00,,,,1.37203,R,ugm-3,9.18000,R,ugm-3,11.28375,R,ugm-3,,,
05-01-2022,16:00,,,,,,,,,,,,,,,
05-01-2022,17:00,,,,,,,,,,,,,,,
05-01-2022,18:00,,,,9.97840,R,ugm-3,42.64875,R,ugm-3,57.94875,R,ugm-3,,,
05-01-2022,19:00,,,,17.33747,R,ugm-3,49.15125,R,ugm-3,75.92625,R,ugm-3,,,
05-01-2022,20:00,,,,17.33747,R,ugm-3,48.76875,R,ugm-3,75.35250,R,ugm-3,,,
05-01-2022,21:00,,,,35.29859,R,ugm-3,46.28250,R,ugm-3,100.40625,R,ugm-3,,,
05-01-2022,22:00,,,,21.57829,R,ugm-3,46.85625,R,ugm-3,79.94250,R,ugm-3,,,
05-01-2022,23:00,,,,18.83423,R,ugm-3,42.64875,R,ugm-3,71.52750,R,ugm-3,,,
05-01-2022,24:00,,,,23.69870,R,ugm-3,32.70375,R,ugm-3,69.04125,R,ugm-3,,,
06-01-2022,01:00,,,,23.94816,R,ugm-3,28.49625,R,ugm-3,65.21625,R,ugm-3,,,
06-01-2022,02:00,,,,20.45572,R,ugm-3,27.92250,R,ugm-3,59.28750,R,ugm-3,,,
06-01-2022,03:00,,,,16.09017,R,ugm-3,24.28875,R,ugm-3,48.96000,R,ugm-3,,,
06-01-2022,04:00,,,,8.48164,R,ugm-3,23.14125,R,ugm-3,36.14625,R,ugm-3,,,
06-01-2022,05:00,,,,2.99352,R,ugm-3,18.55125,R,ugm-3,23.14125,R,ugm-3,,,
06-01-2022,06:00,,,,6.86015,R,ugm-3,21.42000,R,ugm-3,31.74750,R,ugm-3,,,
06-01-2022,07:00,,,,31.80615,R,ugm-3,31.93875,R,ugm-3,80.70750,R,ugm-3,,,
06-01-2022,08:00,,,,46.39956,R,ugm-3,44.75250,R,ugm-3,116.08875,R,ugm-3,,,
06-01-2022,09:00,,,,57.99945,R,ugm-3,48.00375,R,ugm-3,137.12625,R,ugm-3,,,
06-01-2022,10:00,,,,69.22515,R,ugm-3,55.27125,R,ugm-3,161.41500,R,ugm-3,,,
06-01-2022,11:00,,,,35.42332,R,ugm-3,51.63750,R,ugm-3,105.76125,R,ugm-3,,,
06-01-2022,12:00,,,,33.17818,R,ugm-3,56.80125,R,ugm-3,107.67375,R,ugm-3,,,
06-01-2022,13:00,,,,17.33747,R,ugm-3,50.29875,R,ugm-3,76.88250,R,ugm-3,,,
06-01-2022,14:00,,,,4.11609,R,ugm-3,29.45250,R,ugm-3,35.57250,R,ugm-3,,,
06-01-2022,15:00,,,,4.24082,R,ugm-3,37.67625,R,ugm-3,43.98750,R,ugm-3,,,
06-01-2022,16:00,,,,2.61933,R,ugm-3,34.42500,R,ugm-3,38.63250,R,ugm-3,,,
06-01-2022,17:00,,,,1.62149,R,ugm-3,22.95000,R,ugm-3,25.43625,R,ugm-3,,,
06-01-2022,18:00,,,,0.99784,R,ugm-3,18.36000,R,ugm-3,19.89000,R,ugm-3,,,
06-01-2022,19:00,,,,0.99784,R,ugm-3,16.06500,R,ugm-3,17.59500,R,ugm-3,,,
06-01-2022,20:00,,,,0.62365,R,ugm-3,10.90125,R,ugm-3,12.04875,R,ugm-3,,,
06-01-2022,21:00,,,,0.62365,R,ugm-3,12.81375,R,ugm-3,13.77000,R,ugm-3,,,
06-01-2022,22:00,,,,0.49892,R,ugm-3,15.68250,R,ugm-3,16.44750,R,ugm-3,,,
06-01-2022,23:00,,,,0.49892,R,ugm-3,12.43125,R,ugm-3,13.19625,R,ugm-3,,,
06-01-2022,24:00,,,,0.37419,R,ugm-3,6.12000,R,ugm-3,6.88500,R,ugm-3,,,
07-01-2022,01:00,,,,0.12473,R,ugm-3,2.67750,R,ugm-3,2.86875,R,ugm-3,,,
07-01-2022,02:00,,,,0.49892,R,ugm-3,8.98875,R,ugm-3,9.56250,R,ugm-3,,,
07-01-2022,03:00,,,,0.24946,R,ugm-3,4.39875,R,ugm-3,4.97250,R,ugm-3,,,
07-01-2022,04:00,,,,0.24946,R,ugm-3,3.25125,R,ugm-3,3.63375,R,ugm-3,,,
07-01-2022,05:00,,,,0.12473,R,ugm-3,2.86875,R,ugm-3,3.06000,R,ugm-3,,,
07-01-2022,06:00,,,,0.37419,R,ugm-3,4.78125,R,ugm-3,5.35500,R,ugm-3,,,
07-01-2022,07:00,,,,0.49892,R,ugm-3,6.69375,R,ugm-3,7.45875,R,ugm-3,,,
07-01-2022,08:00,,,,1.12257,R,ugm-3,15.49125,R,ugm-3,17.21250,R,ugm-3,,,
07-01-2022,09:00,,,,21.70302,R,ugm-3,30.60000,R,ugm-3,63.87750,R,ugm-3,,,
07-01-2022,10:00,,,,31.05777,R,ugm-3,38.63250,R,ugm-3,86.25375,R,ugm-3,,,
07-01-2022,11:00,,,,26.31803,R,ugm-3,32.32125,R,ugm-3,72.67500,R,ugm-3,,,
07-01-2022,12:00,,,,13.09665,R,ugm-3,16.44750,R,ugm-3,36.52875,R,ugm-3,,,
07-01-2022,13:00,,,,9.97840,R,ugm-3,16.06500,R,ugm-3,31.36500,R,ugm-3,,,
07-01-2022,14:00,,,,15.96544,R,ugm-3,26.01000,R,ugm-3,50.49000,R,ugm-3,,,
07-01-2022,15:00,,,,26.56749,R,ugm-3,33.27750,R,ugm-3,74.01375,R,ugm-3,,,
07-01-2022,16:00,,,,28.43844,R,ugm-3,36.14625,R,ugm-3,79.75125,R,ugm-3,,,
07-01-2022,17:00,,,,22.70086,R,ugm-3,30.40875,R,ugm-3,65.21625,R,ugm-3,,,
07-01-2022,18:00,,,,5.61285,R,ugm-3,17.40375,R,ugm-3,26.01000,R,ugm-3,,,
07-01-2022,19:00,,,,1.12257,R,ugm-3,20.65500,R,ugm-3,22.37625,R,ugm-3,,,
07-01-2022,20:00,,,,0.49892,R,ugm-3,14.91750,R,ugm-3,15.68250,R,ugm-3,,,
07-01-2022,21:00,,,,0.24946,R,ugm-3,11.47500,R,ugm-3,11.85750,R,ugm-3,,,
07-01-2022,22:00,,,,0.24946,R,ugm-3,11.28375,R,ugm-3,11.66625,R,ugm-3,,,
07-01-2022,23:00,,,,0.49892,R,ugm-3,11.85750,R,ugm-3,12.62250,R,ugm-3,,,
07-01-2022,24:00,,,,0.74838,R,ugm-3,19.50750,R,ugm-3,20.65500,R,ugm-3,,,
08-01-2022,01:00,,,,1.87095,R,ugm-3,45.13500,R,ugm-3,48.00375,R,ugm-3,,,
08-01-2022,02:00,,,,1.12257,R,ugm-3,42.45750,R,ugm-3,44.17875,R,ugm-3,,,
08-01-2022,03:00,,,,0.87311,R,ugm-3,28.68750,R,ugm-3,29.83500,R,ugm-3,,,
08-01-2022,04:00,,,,0.74838,R,ugm-3,24.86250,R,ugm-3,26.01000,R,ugm-3,,,
08-01-2022,05:00,,,,0.74838,R,ugm-3,26.58375,R,ugm-3,27.73125,R,ugm-3,,,
08-01-2022,06:00,,,,0.62365,R,ugm-3,12.62250,R,ugm-3,13.57875,R,ugm-3,,,
08-01-2022,07:00,,,,0.99784,R,ugm-3,19.50750,R,ugm-3,21.03750,R,ugm-3,,,
08-01-2022,08:00,,,,0.87311,R,ugm-3,19.69875,R,ugm-3,21.03750,R,ugm-3,,,
08-01-2022,09:00,,,,1.24730,R,ugm-3,21.42000,R,ugm-3,23.14125,R,ugm-3,,,
08-01-2022,10:00,,,,1.49676,R,ugm-3,20.08125,R,ugm-3,22.37625,R,ugm-3,,,
08-01-2022,11:00,,,,1.37203,R,ugm-3,20.08125,R,ugm-3,22.18500,R,ugm-3,,,
08-01-2022,12:00,,,,1.62149,R,ugm-3,18.74250,R,ugm-3,21.42000,R,ugm-3,,,
08-01-2022,13:00,,,,4.61501,R,ugm-3,24.86250,R,ugm-3,31.93875,R,ugm-3,,,
08-01-2022,14:00,,,,5.98704,R,ugm-3,28.30500,R,ugm-3,37.67625,R,ugm-3,,,
08-01-2022,15:00,,,,13.34611,R,ugm-3,28.11375,R,ugm-3,48.57750,R,ugm-3,,,
08-01-2022,16:00,,,,10.97624,R,ugm-3,25.62750,R,ugm-3,42.64875,R,ugm-3,,,
08-01-2022,17:00,,,,0.37419,R,ugm-3,7.45875,R,ugm-3,8.03250,R,ugm-3,,,
08-01-2022,18:00,,,,0.37419,R,ugm-3,16.25625,R,ugm-3,16.83000,R,ugm-3,,,
08-01-2022,19:00,,,,0.24946,R,ugm-3,8.79750,R,ugm-3,9.18000,R,ugm-3,,,
08-01-2022,20:00,,,,0.12473,R,ugm-3,4.59000,R,ugm-3,4.78125,R,ugm-3,,,
08-01-2022,21:00,,,,0.00000,R,ugm-3,3.25125,R,ugm-3,3.44250,R,ugm-3,,,
08-01-2022,22:00,,,,0.00000,R,ugm-3,2.86875,R,ugm-3,2.86875,R,ugm-3,,,
08-01-2022,23:00,,,,0.12473,R,ugm-3,3.82500,R,ugm-3,4.01625,R,ugm-3,,,
08-01-2022,24:00,,,,0.12473,R,ugm-3,2.86875,R,ugm-3,3.25125,R,ugm-3,,,
09-01-2022,01:00,,,,0.12473,R,ugm-3,2.29500,R,ugm-3,2.48625,R,ugm-3,,,
09-01-2022,02:00,,,,0.12473,R,ugm-3,5.92875,R,ugm-3,6.12000,R,ugm-3,,,
09-01-2022,03:00,,,,0.12473,R,ugm-3,3.82500,R,ugm-3,4.01625,R,ugm-3,,,
09-01-2022,04:00,,,,0.12473,R,ugm-3,3.82500,R,ugm-3,4.01625,R,ugm-3,,,
09-01-2022,05:00,,,,0.24946,R,ugm-3,4.78125,R,ugm-3,5.16375,R,ugm-3,,,
09-01-2022,06:00,,,,0.12473,R,ugm-3,4.20750,R,ugm-3,4.59000,R,ugm-3,,,
09-01-2022,07:00,,,,0.12473,R,ugm-3,4.78125,R,ugm-3,4.97250,R,ugm-3,,,
09-01-2022,08:00,,,,0.24946,R,ugm-3,6.50250,R,ugm-3,6.88500,R,ugm-3,,,
09-01-2022,09:00,,,,0.49892,R,ugm-3,9.18000,R,ugm-3,10.13625,R,ugm-3,,,
09-01-2022,10:00,,,,1.24730,R,ugm-3,10.32750,R,ugm-3,12.24000,R,ugm-3,,,
09-01-2022,11:00,,,,1.99568,R,ugm-3,10.71000,R,ugm-3,13.77000,R,ugm-3,,,
09-01-2022,12:00,,,,2.49460,R,ugm-3,10.90125,R,ugm-3,14.72625,R,ugm-3,,,
09-01-2022,13:00,,,,1.37203,R,ugm-3,6.31125,R,ugm-3,8.41500,R,ugm-3,,,
09-01-2022,14:00,,,,0.87311,R,ugm-3,4.20750,R,ugm-3,5.54625,R,ugm-3,,,
09-01-2022,15:00,,,,0.87311,R,ugm-3,7.65000,R,ugm-3,8.98875,R,ugm-3,,,
09-01-2022,16:00,,,,0.62365,R,ugm-3,12.43125,R,ugm-3,13.19625,R,ugm-3,,,
09-01-2022,17:00,,,,1.37203,R,ugm-3,28.87875,R,ugm-3,31.17375,R,ugm-3,,,
09-01-2022,18:00,,,,1.74622,R,ugm-3,34.61625,R,ugm-3,37.29375,R,ugm-3,,,
09-01-2022,19:00,,,,4.24082,R,ugm-3,39.20625,R,ugm-3,45.51750,R,ugm-3,,,
09-01-2022,20:00,,,,12.97192,R,ugm-3,48.00375,R,ugm-3,67.89375,R,ugm-3,,,
09-01-2022,21:00,,,,28.31371,R,ugm-3,47.04750,R,ugm-3,90.46125,R,ugm-3,,,
09-01-2022,22:00,,,,32.80399,R,ugm-3,43.79625,R,ugm-3,94.09500,R,ugm-3,,,
09-01-2022,23:00,,,,30.93304,R,ugm-3,41.88375,R,ugm-3,89.31375,R,ugm-3,,,
09-01-2022,24:00,,,,28.31371,R,ugm-3,37.29375,R,ugm-3,80.70750,R,ugm-3,,,
10-01-2022,01:00,,,,24.19762,R,ugm-3,33.85125,R,ugm-3,70.95375,R,ugm-3,,,
10-01-2022,02:00,,,,10.72678,R,ugm-3,32.13000,R,ugm-3,48.38625,R,ugm-3,,,
10-01-2022,03:00,,,,21.70302,R,ugm-3,31.55625,R,ugm-3,64.83375,R,ugm-3,,,
10-01-2022,04:00,,,,37.66846,R,ugm-3,33.08625,R,ugm-3,91.03500,R,ugm-3,,,
10-01-2022,05:00,,,,39.16522,R,ugm-3,31.36500,R,ugm-3,91.41750,R,ugm-3,,,
10-01-2022,06:00,,,,37.16954,R,ugm-3,28.49625,R,ugm-3,85.48875,R,ugm-3,,,
10-01-2022,07:00,,,,41.16090,R,ugm-3,28.30500,R,ugm-3,91.41750,R,ugm-3,,,
10-01-2022,08:00,,,,65.48325,R,ugm-3,35.38125,R,ugm-3,135.78750,R,ugm-3,,,
10-01-2022,09:00,,,,75.96057,R,ugm-3,51.44625,R,ugm-3,167.91750,R,ugm-3,,,
10-01-2022,10:00,,,,68.10258,R,ugm-3,55.65375,R,ugm-3,160.07625,R,ugm-3,,,
10-01-2022,11:00,,,,91.55182,R,ugm-3,61.00875,R,ugm-3,201.38625,R,ugm-3,,,
10-01-2022,12:00,,,,106.26996,R,ugm-3,75.73500,R,ugm-3,238.68000,R,ugm-3,,,
10-01-2022,13:00,,,,62.61446,R,ugm-3,68.65875,R,ugm-3,164.85750,R,ugm-3,,,
10-01-2022,14:00,,,,32.80399,R,ugm-3,62.15625,R,ugm-3,112.45500,R,ugm-3,,,
10-01-2022,15:00,,,,17.58693,R,ugm-3,58.14000,R,ugm-3,85.10625,R,ugm-3,,,
10-01-2022,16:00,,,,9.72894,R,ugm-3,53.93250,R,ugm-3,68.85000,R,ugm-3,,,
10-01-2022,17:00,,,,9.72894,R,ugm-3,60.24375,R,ugm-3,75.16125,R,ugm-3,,,
10-01-2022,18:00,,,,5.36339,R,ugm-3,52.21125,R,ugm-3,60.24375,R,ugm-3,,,
10-01-2022,19:00,,,,5.61285,R,ugm-3,47.23875,R,ugm-3,55.65375,R,ugm-3,,,
10-01-2022,20:00,,,,2.74406,R,ugm-3,43.41375,R,ugm-3,47.62125,R,ugm-3,,,
10-01-2022,21:00,,,,1.62149,R,ugm-3,40.16250,R,ugm-3,42.64875,R,ugm-3,,,
10-01-2022,22:00,,,,1.12257,R,ugm-3,32.13000,R,ugm-3,33.85125,R,ugm-3,,,
10-01-2022,23:00,,,,0.87311,R,ugm-3,22.37625,R,ugm-3,23.71500,R,ugm-3,,,
10-01-2022,24:00,,,,0.49892,R,ugm-3,18.36000,R,ugm-3,19.12500,R,ugm-3,,,
11-01-2022,01:00,,,,0.37419,R,ugm-3,13.77000,R,ugm-3,14.34375,R,ugm-3,,,
11-01-2022,02:00,,,,0.37419,R,ugm-3,17.21250,R,ugm-3,17.78625,R,ugm-3,,,
11-01-2022,03:00,,,,0.37419,R,ugm-3,12.81375,R,ugm-3,13.57875,R,ugm-3,,,
11-01-2022,04:00,,,,0.37419,R,ugm-3,10.71000,R,ugm-3,11.28375,R,ugm-3,,,
11-01-2022,05:00,,,,0.37419,R,ugm-3,8.79750,R,ugm-3,9.56250,R,ugm-3,,,
11-01-2022,06:00,,,,0.49892,R,ugm-3,9.75375,R,ugm-3,10.51875,R,ugm-3,,,
11-01-2022,07:00,,,,0.62365,R,ugm-3,15.49125,R,ugm-3,16.44750,R,ugm-3,,,
11-01-2022,08:00,,,,2.99352,R,ugm-3,38.82375,R,ugm-3,43.41375,R,ugm-3,,,
11-01-2022,09:00,,,,4.86447,R,ugm-3,41.69250,R,ugm-3,49.15125,R,ugm-3,,,
11-01-2022,10:00,,,,4.11609,R,ugm-3,33.66000,R,ugm-3,39.97125,R,ugm-3,,,
11-01-2022,11:00,,,,3.61717,R,ugm-3,28.49625,R,ugm-3,34.04250,R,ugm-3,,,
11-01-2022,12:00,,,,8.35691,R,ugm-3,38.05875,R,ugm-3,50.87250,R,ugm-3,,,
11-01-2022,13:00,,,,10.97624,R,ugm-3,41.11875,R,ugm-3,57.94875,R,ugm-3,,,
11-01-2022,14:00,,,,5.73758,R,ugm-3,31.55625,R,ugm-3,40.54500,R,ugm-3,,,
11-01-2022,15:00,,,,4.11609,R,ugm-3,30.02625,R,ugm-3,36.33750,R,ugm-3,,,
11-01-2022,16:00,,,,4.49028,R,ugm-3,33.46875,R,ugm-3,40.35375,R,ugm-3,,,
11-01-2022,17:00,,,,0.99784,R,ugm-3,26.77500,R,ugm-3,28.49625,R,ugm-3,,,
11-01-2022,18:00,,,,0.37419,R,ugm-3,26.39250,R,ugm-3,26.96625,R,ugm-3,,,
11-01-2022,19:00,,,,0.37419,R,ugm-3,17.78625,R,ugm-3,18.16875,R,ugm-3,,,
11-01-2022,20:00,,,,0.24946,R,ugm-3,19.31625,R,ugm-3,19.69875,R,ugm-3,,,
11-01-2022,21:00,,,,0.37419,R,ugm-3,21.80250,R,ugm-3,22.37625,R,ugm-3,,,
11-01-2022,22:00,,,,0.37419,R,ugm-3,21.99375,R,ugm-3,22.75875,R,ugm-3,,,
11-01-2022,23:00,,,,0.37419,R,ugm-3,20.08125,R,ugm-3,20.46375,R,ugm-3,,,
11-01-2022,24:00,,,,0.74838,R,ugm-3,21.03750,R,ugm-3,21.99375,R,ugm-3,,,
12-01-2022,01:00,,,,0.37419,R,ugm-3,20.46375,R,ugm-3,21.22875,R,ugm-3,,,
12-01-2022,02:00,,,,0.24946,R,ugm-3,18.36000,R,ugm-3,18.74250,R,ugm-3,,,
12-01-2022,03:00,,,,0.37419,R,ugm-3,15.68250,R,ugm-3,16.25625,R,ugm-3,,,
12-01-2022,04:00,,,,0.49892,R,ugm-3,15.30000,R,ugm-3,16.06500,R,ugm-3,,,
12-01-2022,05:00,,,,1.74622,R,ugm-3,21.03750,R,ugm-3,23.71500,R,ugm-3,,,
12-01-2022,06:00,,,,5.73758,R,ugm-3,22.95000,R,ugm-3,31.93875,R,ugm-3,,,
12-01-2022,07:00,,,,19.95680,R,ugm-3,22.95000,R,ugm-3,53.55000,R,ugm-3,,,
12-01-2022,08:00,,,,59.74567,R,ugm-3,28.68750,R,ugm-3,120.29625,R,ugm-3,,,
12-01-2022,09:00,,,,105.39685,R,ugm-3,35.95500,R,ugm-3,197.56125,R,ugm-3,,,
12-01-2022,10:00,,,,126.72568,R,ugm-3,45.13500,R,ugm-3,239.63625,R,ugm-3,,,
12-01-2022,11:00,,,,,,,,,,,,,,,
12-01-2022,12:00,,,,,,,,,,,,,,,
12-01-2022,13:00,,,,,,,,,,,,,,,
12-01-2022,14:00,,,,16.33963,R,ugm-3,41.11875,R,ugm-3,66.36375,R,ugm-3,,,
12-01-2022,15:00,,,,14.09449,R,ugm-3,41.69250,R,ugm-3,63.30375,R,ugm-3,,,
12-01-2022,16:00,,,,4.73974,R,ugm-3,38.05875,R,ugm-3,45.32625,R,ugm-3,,,
12-01-2022,17:00,,,,6.98488,R,ugm-3,47.04750,R,ugm-3,57.75750,R,ugm-3,,,
12-01-2022,18:00,,,,63.11338,R,ugm-3,42.07500,R,ugm-3,138.84750,R,ugm-3,,,
12-01-2022,19:00,,,,111.50862,R,ugm-3,45.70875,R,ugm-3,216.68625,R,ugm-3,,,
12-01-2022,20:00,,,,121.73648,R,ugm-3,40.92750,R,ugm-3,227.77875,R,ugm-3,,,
12-01-2022,21:00,,,,138.07611,R,ugm-3,41.50125,R,ugm-3,253.21500,R,ugm-3,,,
12-01-2022,22:00,,,,127.34933,R,ugm-3,36.72000,R,ugm-3,231.98625,R,ugm-3,,,
12-01-2022,23:00,,,,67.60366,R,ugm-3,31.93875,R,ugm-3,135.59625,R,ugm-3,,,
12-01-2022,24:00,,,,43.78023,R,ugm-3,28.68750,R,ugm-3,95.81625,R,ugm-3,,,
13-01-2022,01:00,,,,44.77807,R,ugm-3,26.58375,R,ugm-3,95.24250,R,ugm-3,,,
13-01-2022,02:00,,,,48.76943,R,ugm-3,27.73125,R,ugm-3,102.70125,R,ugm-3,,,
13-01-2022,03:00,,,,52.13714,R,ugm-3,23.71500,R,ugm-3,103.65750,R,ugm-3,,,
13-01-2022,04:00,,,,47.27267,R,ugm-3,22.37625,R,ugm-3,94.86000,R,ugm-3,,,
13-01-2022,05:00,,,,36.92008,R,ugm-3,22.37625,R,ugm-3,78.98625,R,ugm-3,,,
13-01-2022,06:00,,,,36.54589,R,ugm-3,22.37625,R,ugm-3,78.41250,R,ugm-3,,,
13-01-2022,07:00,,,,34.17602,R,ugm-3,21.03750,R,ugm-3,73.44000,R,ugm-3,,,
13-01-2022,08:00,,,,68.22731,R,ugm-3,26.20125,R,ugm-3,130.81500,R,ugm-3,,,
13-01-2022,09:00,,,,119.11715,R,ugm-3,36.91125,R,ugm-3,219.55500,R,ugm-3,,,
13-01-2022,10:00,,,,188.34230,R,ugm-3,49.91625,R,ugm-3,338.89500,R,ugm-3,,,
13-01-2022,11:00,,,,120.48918,R,ugm-3,58.14000,R,ugm-3,242.69625,R,ugm-3,,,
13-01-2022,12:00,,,,59.99513,R,ugm-3,50.68125,R,ugm-3,142.48125,R,ugm-3,,,
13-01-2022,13:00,,,,32.30507,R,ugm-3,49.72500,R,ugm-3,99.25875,R,ugm-3,,,
13-01-2022,14:00,,,,23.82343,R,ugm-3,51.25500,R,ugm-3,87.97500,R,ugm-3,,,
13-01-2022,15:00,,,,32.18034,R,ugm-3,62.15625,R,ugm-3,111.49875,R,ugm-3,,,
13-01-2022,16:00,,,,58.99729,R,ugm-3,84.91500,R,ugm-3,175.37625,R,ugm-3,,,
13-01-2022,17:00,,,,118.11931,R,ugm-3,107.48250,R,ugm-3,288.59625,R,ugm-3,,,
13-01-2022,18:00,,,,124.10635,R,ugm-3,82.04625,R,ugm-3,272.34000,R,ugm-3,,,
13-01-2022,19:00,,,,142.44166,R,ugm-3,65.21625,R,ugm-3,283.81500,R,ugm-3,,,
13-01-2022,20:00,,,,87.93465,R,ugm-3,57.18375,R,ugm-3,192.01500,R,ugm-3,,,
13-01-2022,21:00,,,,67.97785,R,ugm-3,49.34250,R,ugm-3,153.57375,R,ugm-3,,,
13-01-2022,22:00,,,,53.13498,R,ugm-3,46.28250,R,ugm-3,127.75500,R,ugm-3,,,
13-01-2022,23:00,,,,33.42764,R,ugm-3,39.78000,R,ugm-3,91.03500,R,ugm-3,,,
13-01-2022,24:00,,,,16.33963,R,ugm-3,42.84000,R,ugm-3,67.89375,R,ugm-3,,,
14-01-2022,01:00,,,,14.46868,R,ugm-3,38.82375,R,ugm-3,61.20000,R,ugm-3,,,
14-01-2022,02:00,,,,12.34827,R,ugm-3,36.33750,R,ugm-3,55.27125,R,ugm-3,,,
14-01-2022,03:00,,,,12.97192,R,ugm-3,29.26125,R,ugm-3,49.15125,R,ugm-3,,,
14-01-2022,04:00,,,,14.96760,R,ugm-3,28.11375,R,ugm-3,51.06375,R,ugm-3,,,
14-01-2022,05:00,,,,16.71382,R,ugm-3,26.58375,R,ugm-3,52.21125,R,ugm-3,,,
14-01-2022,06:00,,,,21.45356,R,ugm-3,26.20125,R,ugm-3,59.09625,R,ugm-3,,,
14-01-2022,07:00,,,,27.44060,R,ugm-3,23.52375,R,ugm-3,65.59875,R,ugm-3,,,
14-01-2022,08:00,,,,69.59934,R,ugm-3,29.26125,R,ugm-3,135.97875,R,ugm-3,,,
14-01-2022,09:00,,,,115.37525,R,ugm-3,34.99875,R,ugm-3,211.90500,R,ugm-3,,,
14-01-2022,10:00,,,,169.88226,R,ugm-3,50.49000,R,ugm-3,310.97250,R,ugm-3,,,
14-01-2022,11:00,,,,90.17979,R,ugm-3,51.06375,R,ugm-3,189.14625,R,ugm-3,,,
14-01-2022,12:00,,,,57.99945,R,ugm-3,46.85625,R,ugm-3,135.78750,R,ugm-3,,,
14-01-2022,13:00,,,,21.20410,R,ugm-3,37.86750,R,ugm-3,70.38000,R,ugm-3,,,
14-01-2022,14:00,,,,36.67062,R,ugm-3,54.12375,R,ugm-3,110.16000,R,ugm-3,,,
14-01-2022,15:00,,,,29.06209,R,ugm-3,52.78500,R,ugm-3,97.53750,R,ugm-3,,,